User: anonymous   Login
Location: Norwich
(52.6280°N, 1.3030°E)
Time: 13:31:32
(UTC+00:00)
Language:

APEX - Orbit

View from above orbital plane
View from above orbital plane
View from above satellite
View from above satellite

Ground track
Ground track

The orbit data is extracted from the following two-line orbital elements,

1 23191U 94046A   14354.50603429  .00030591  00000-0  12133-2 0   794
2 23191 069.9153 133.3636 0712204 051.0944 013.4547 14.11098912986738
Epoch (UTC): 20 December 2014 12:08:41
Eccentricity: 0.0712204
inclination: 69.9153°
perigee height: 340 km
apogee height: 1371 km
right ascension of ascending node: 133.3636°
argument of perigee: 51.0944°
revolutions per day: 14.11098912
mean anomaly at epoch: 13.4547°
orbit number at epoch: 98673

The dashed part of the orbit path shows where the satellite is in the earth's shadow,  

DLR